CFG2016 EGLL-EDDF

Flight info

Callsign CFG2016
Flight time 1h 16m
Altitude 35000
Route BPK Q295 MATCH DCT REDFA DCT TACHA DCT NOLRU DCT DIXAT DIXAT1A
Aircraft A359/H-SDE2E3GHIJ3J4J5LM1ORWXY/LB1D1

Departure

Time 2026-05-06 14:51
Airport London Heathrow Airport (EGLL)

Arrival

Time 2026-05-06 16:07
Airport Frankfurt Main Airport (EDDF)
Time Latitude Longitude Altitude Speed Heading
2026-05-06 14:31 51.47383 -0.48231 94 ft 0 kts 89°
2026-05-06 14:39 51.47383 -0.48243 96 ft 9 kts 89°
2026-05-06 14:39 51.47383 -0.48275 96 ft 8 kts 88°
2026-05-06 14:39 51.47382 -0.48300 96 ft 10 kts 90°
2026-05-06 14:40 51.47383 -0.48324 97 ft 11 kts 119°
2026-05-06 14:40 51.47391 -0.48343 94 ft 20 kts 150°
2026-05-06 14:40 51.47408 -0.48355 93 ft 40 kts 168°
2026-05-06 14:40 51.47427 -0.48359 94 ft 40 kts 178°
2026-05-06 14:41 51.47434 -0.48360 94 ft 59 kts 179°
2026-05-06 14:43 51.47431 -0.48360 94 ft 2 kts 179°
2026-05-06 14:43 51.47426 -0.48359 94 ft 0 kts 178°
2026-05-06 14:43 51.47413 -0.48358 95 ft 5 kts 176°
2026-05-06 14:44 51.47346 -0.48355 97 ft 14 kts 178°
2026-05-06 14:44 51.47220 -0.48354 96 ft 22 kts 180°
2026-05-06 14:44 51.47040 -0.48356 95 ft 27 kts 180°
2026-05-06 14:45 51.46825 -0.48354 91 ft 18 kts 179°
2026-05-06 14:45 51.46742 -0.48417 95 ft 8 kts 250°
2026-05-06 14:45 51.46739 -0.48543 90 ft 15 kts 268°
2026-05-06 14:45 51.46714 -0.48725 93 ft 15 kts 228°
2026-05-06 14:46 51.46662 -0.48750 93 ft 11 kts 191°
2026-05-06 14:46 51.46638 -0.48758 93 ft 0 kts 192°
2026-05-06 14:48 51.46619 -0.48765 93 ft 6 kts 193°
2026-05-06 14:48 51.46617 -0.48765 93 ft 0 kts 192°
2026-05-06 14:49 51.46605 -0.48768 93 ft 5 kts 189°
2026-05-06 14:50 51.46546 -0.48772 92 ft 12 kts 175°
2026-05-06 14:50 51.46485 -0.48710 94 ft 11 kts 127°
2026-05-06 14:50 51.46471 -0.48619 94 ft 0 kts 87°
2026-05-06 14:50 51.46473 -0.48568 95 ft 26 kts 86°
2026-05-06 14:51 51.46487 -0.47850 94 ft 101 kts 89°
2026-05-06 14:51 51.46502 -0.46376 101 ft 162 kts 85°
2026-05-06 14:51 51.46558 -0.44500 737 ft 169 kts 83°
2026-05-06 14:51 51.46923 -0.42741 1506 ft 166 kts 51°
2026-05-06 14:52 51.47588 -0.41120 2140 ft 185 kts 52°
2026-05-06 14:52 51.48395 -0.39363 2566 ft 207 kts 50°
2026-05-06 14:52 51.49352 -0.37426 2972 ft 234 kts 49°
2026-05-06 14:52 51.50415 -0.35348 3753 ft 244 kts 48°
2026-05-06 14:53 51.51472 -0.33178 4626 ft 251 kts 55°
2026-05-06 14:53 51.52208 -0.30669 5408 ft 258 kts 65°
2026-05-06 14:53 51.53104 -0.28178 5874 ft 259 kts 46°
2026-05-06 14:53 51.54542 -0.26482 6005 ft 258 kts 25°
2026-05-06 14:54 51.56193 -0.25322 6003 ft 259 kts 21°
2026-05-06 14:54 51.57846 -0.24268 5999 ft 260 kts 21°
2026-05-06 14:54 51.59538 -0.23206 6048 ft 261 kts 21°
2026-05-06 14:54 51.61226 -0.22147 6053 ft 260 kts 21°
2026-05-06 14:55 51.62916 -0.21086 6054 ft 261 kts 21°
2026-05-06 14:55 51.64606 -0.20026 6055 ft 261 kts 21°
2026-05-06 14:55 51.66299 -0.18967 6052 ft 261 kts 21°
2026-05-06 14:55 51.67995 -0.17906 6057 ft 261 kts 21°
2026-05-06 14:56 51.69694 -0.16847 6054 ft 262 kts 21°
2026-05-06 14:56 51.70816 -0.16149 6053 ft 262 kts 21°
2026-05-06 14:56 51.73066 -0.14753 6054 ft 262 kts 21°
2026-05-06 14:56 51.74687 -0.13408 6129 ft 262 kts 35°
2026-05-06 14:57 51.75964 -0.11291 6615 ft 267 kts 57°
2026-05-06 14:57 51.76668 -0.08516 7538 ft 270 kts 74°
2026-05-06 14:57 51.77013 -0.05506 8486 ft 276 kts 82°
2026-05-06 14:57 51.77124 -0.03439 9093 ft 282 kts 85°
2026-05-06 14:58 51.77202 -0.00228 9984 ft 290 kts 86°
2026-05-06 14:58 51.77250 0.03118 10525 ft 309 kts 86°
2026-05-06 14:58 51.77343 0.07945 11053 ft 340 kts 86°
2026-05-06 14:58 51.77450 0.11881 11466 ft 361 kts 85°
2026-05-06 14:59 51.77588 0.16031 11859 ft 380 kts 85°
2026-05-06 14:59 51.77692 0.18882 12228 ft 389 kts 85°
2026-05-06 14:59 51.77896 0.23281 12941 ft 396 kts 81°
2026-05-06 14:59 51.78395 0.27683 13722 ft 401 kts 77°
2026-05-06 15:00 51.79018 0.32121 14397 ft 406 kts 75°
2026-05-06 15:00 51.79705 0.36552 14809 ft 408 kts 74°
2026-05-06 15:00 51.80425 0.41008 14939 ft 410 kts 74°
2026-05-06 15:00 51.81146 0.45417 15212 ft 412 kts 74°
2026-05-06 15:01 51.81871 0.49872 16186 ft 406 kts 74°
2026-05-06 15:01 51.82579 0.54270 17256 ft 404 kts 75°
2026-05-06 15:01 51.83282 0.58683 18106 ft 407 kts 75°
2026-05-06 15:01 51.83984 0.63129 18858 ft 411 kts 75°
2026-05-06 15:02 51.84692 0.67636 19587 ft 415 kts 75°
2026-05-06 15:02 51.85401 0.72179 20310 ft 419 kts 75°
2026-05-06 15:02 51.86114 0.76767 21024 ft 423 kts 75°
2026-05-06 15:02 51.86832 0.81396 21746 ft 427 kts 76°
2026-05-06 15:03 51.87556 0.86073 22467 ft 431 kts 76°
2026-05-06 15:03 51.88276 0.90736 23162 ft 435 kts 76°
2026-05-06 15:03 51.89010 0.95509 23802 ft 439 kts 76°
2026-05-06 15:03 51.89751 1.00335 24388 ft 443 kts 76°
2026-05-06 15:04 51.90496 1.05199 24972 ft 447 kts 76°
2026-05-06 15:04 51.91244 1.10096 25555 ft 450 kts 76°
2026-05-06 15:04 51.91997 1.15049 26148 ft 454 kts 76°
2026-05-06 15:04 51.92753 1.20031 26719 ft 458 kts 76°
2026-05-06 15:05 51.93513 1.25061 27300 ft 461 kts 76°
2026-05-06 15:05 51.94277 1.30127 27874 ft 465 kts 76°
2026-05-06 15:05 51.95035 1.35174 28420 ft 468 kts 76°
2026-05-06 15:05 51.95807 1.40326 28956 ft 472 kts 77°
2026-05-06 15:06 51.96581 1.45516 29493 ft 476 kts 77°
2026-05-06 15:06 51.97360 1.50752 30003 ft 479 kts 77°
2026-05-06 15:06 51.98141 1.56019 30419 ft 483 kts 77°
2026-05-06 15:06 51.98929 1.61350 30838 ft 486 kts 77°
2026-05-06 15:07 51.99716 1.66693 31253 ft 488 kts 77°
2026-05-06 15:07 52.00503 1.72050 31647 ft 491 kts 77°
2026-05-06 15:07 52.01285 1.77400 32026 ft 494 kts 77°
2026-05-06 15:07 52.02081 1.82857 32384 ft 497 kts 77°
2026-05-06 15:08 52.02874 1.88317 32741 ft 499 kts 77°
2026-05-06 15:08 52.03669 1.93806 33164 ft 500 kts 77°
2026-05-06 15:08 52.04461 1.99297 33686 ft 498 kts 77°
2026-05-06 15:08 52.05249 2.04784 34135 ft 498 kts 77°
2026-05-06 15:09 52.06033 2.10258 34501 ft 498 kts 77°
2026-05-06 15:09 52.06815 2.15745 34811 ft 499 kts 77°
2026-05-06 15:09 52.07588 2.21182 34949 ft 502 kts 77°
2026-05-06 15:10 52.09149 2.32227 34955 ft 501 kts 77°
2026-05-06 15:10 52.10700 2.43282 34953 ft 502 kts 77°
2026-05-06 15:11 52.12315 2.54324 34953 ft 502 kts 74°
2026-05-06 15:11 52.14411 2.65181 34947 ft 502 kts 71°
2026-05-06 15:12 52.16578 2.75912 34945 ft 503 kts 72°
2026-05-06 15:12 52.18686 2.86796 34947 ft 503 kts 73°
2026-05-06 15:13 52.20735 2.97703 34948 ft 503 kts 73°
2026-05-06 15:13 52.22758 3.08593 34938 ft 503 kts 73°
2026-05-06 15:14 52.24299 3.19704 34939 ft 503 kts 86°
2026-05-06 15:14 52.23804 3.30985 34937 ft 499 kts 105°
2026-05-06 15:15 52.21575 3.41611 34933 ft 498 kts 112°
2026-05-06 15:15 52.19009 3.52098 34922 ft 498 kts 114°
2026-05-06 15:16 52.16432 3.62535 34916 ft 497 kts 113°
2026-05-06 15:16 52.13869 3.73025 34914 ft 497 kts 113°
2026-05-06 15:17 52.11344 3.83400 34911 ft 497 kts 113°
2026-05-06 15:17 52.08801 3.93822 34910 ft 496 kts 114°
2026-05-06 15:18 52.06240 4.04239 34895 ft 495 kts 114°
2026-05-06 15:18 52.03688 4.14588 34885 ft 494 kts 114°
2026-05-06 15:19 52.01119 4.24957 34883 ft 493 kts 114°
2026-05-06 15:19 51.98567 4.35211 34884 ft 493 kts 114°
2026-05-06 15:20 51.95993 4.45497 34883 ft 492 kts 114°
2026-05-06 15:20 51.93418 4.55742 34883 ft 491 kts 114°
2026-05-06 15:21 51.90849 4.65910 34884 ft 491 kts 114°
2026-05-06 15:21 51.88254 4.76143 34883 ft 491 kts 114°
2026-05-06 15:22 51.85657 4.86336 34881 ft 490 kts 114°
2026-05-06 15:22 51.83049 4.96526 34883 ft 490 kts 114°
2026-05-06 15:23 51.80433 5.06698 34883 ft 490 kts 114°
2026-05-06 15:23 51.77804 5.16872 34883 ft 490 kts 114°
2026-05-06 15:24 51.75189 5.26947 34884 ft 490 kts 114°
2026-05-06 15:24 51.72546 5.37088 34883 ft 490 kts 115°
2026-05-06 15:25 51.69898 5.47203 34883 ft 490 kts 115°
2026-05-06 15:25 51.67240 5.57309 34884 ft 490 kts 115°
2026-05-06 15:26 51.64594 5.67324 34882 ft 490 kts 115°
2026-05-06 15:26 51.61911 5.77436 34884 ft 490 kts 115°
2026-05-06 15:27 51.59230 5.87498 34882 ft 490 kts 115°
2026-05-06 15:27 51.56536 5.97561 34891 ft 490 kts 115°
2026-05-06 15:28 51.53837 6.07604 34895 ft 490 kts 115°
2026-05-06 15:28 51.51138 6.17599 34879 ft 490 kts 115°
2026-05-06 15:29 51.48490 6.27709 34874 ft 491 kts 113°
2026-05-06 15:29 51.46034 6.37930 34868 ft 491 kts 113°
2026-05-06 15:30 51.43555 6.48070 34863 ft 492 kts 113°
2026-05-06 15:30 51.41044 6.58241 34862 ft 492 kts 114°
2026-05-06 15:31 51.38517 6.68416 34855 ft 492 kts 114°
2026-05-06 15:31 51.35974 6.78601 34862 ft 492 kts 114°
2026-05-06 15:32 51.32160 6.93793 34852 ft 493 kts 114°
2026-05-06 15:32 51.29606 7.03895 34137 ft 487 kts 114°
2026-05-06 15:33 51.28110 7.08767 33069 ft 490 kts 123°
2026-05-06 15:33 51.26105 7.13161 32078 ft 489 kts 133°
2026-05-06 15:33 51.23643 7.16897 31096 ft 488 kts 143°
2026-05-06 15:33 51.20816 7.19851 30125 ft 488 kts 153°
2026-05-06 15:34 51.17815 7.22265 29060 ft 488 kts 154°
2026-05-06 15:34 51.14764 7.24639 28115 ft 487 kts 154°
2026-05-06 15:34 51.11743 7.27003 27374 ft 481 kts 154°
2026-05-06 15:34 51.08770 7.29389 26678 ft 476 kts 153°
2026-05-06 15:35 51.05861 7.31794 26002 ft 471 kts 153°
2026-05-06 15:35 51.02963 7.34195 25344 ft 465 kts 153°
2026-05-06 15:35 51.00103 7.36562 24702 ft 460 kts 154°
2026-05-06 15:35 50.97279 7.38888 24075 ft 455 kts 154°
2026-05-06 15:36 50.94481 7.41189 23445 ft 451 kts 154°
2026-05-06 15:36 50.91746 7.43434 22757 ft 447 kts 154°
2026-05-06 15:36 50.88962 7.45716 22127 ft 442 kts 154°
2026-05-06 15:36 50.86274 7.47916 21504 ft 440 kts 154°
2026-05-06 15:37 50.83569 7.50128 20913 ft 437 kts 155°
2026-05-06 15:37 50.80880 7.52322 20304 ft 433 kts 155°
2026-05-06 15:37 50.78212 7.54496 19703 ft 430 kts 155°
2026-05-06 15:37 50.75566 7.56649 19105 ft 426 kts 155°
2026-05-06 15:38 50.72936 7.58787 18501 ft 422 kts 155°
2026-05-06 15:38 50.70343 7.60891 17890 ft 419 kts 155°
2026-05-06 15:38 50.67763 7.62987 17338 ft 415 kts 155°
2026-05-06 15:38 50.65199 7.65063 16834 ft 412 kts 155°
2026-05-06 15:39 50.62690 7.67090 16353 ft 410 kts 155°
2026-05-06 15:39 50.60159 7.69132 15854 ft 408 kts 155°
2026-05-06 15:39 50.57644 7.71165 15380 ft 405 kts 155°
2026-05-06 15:39 50.55140 7.73181 14929 ft 403 kts 155°
2026-05-06 15:40 50.52660 7.75173 14475 ft 401 kts 155°
2026-05-06 15:40 50.50176 7.77167 14013 ft 399 kts 155°
2026-05-06 15:40 50.47707 7.79147 13552 ft 397 kts 155°
2026-05-06 15:40 50.45257 7.81111 13075 ft 395 kts 155°
2026-05-06 15:41 50.42898 7.83293 12638 ft 394 kts 146°
2026-05-06 15:41 50.40729 7.85897 12283 ft 392 kts 143°
2026-05-06 15:41 50.38633 7.88521 11911 ft 389 kts 143°
2026-05-06 15:41 50.36522 7.91159 11543 ft 387 kts 143°
2026-05-06 15:42 50.34422 7.93773 11178 ft 385 kts 143°
2026-05-06 15:42 50.32321 7.96380 10799 ft 382 kts 143°
2026-05-06 15:42 50.30253 7.98940 10543 ft 374 kts 143°
2026-05-06 15:42 50.28256 8.01411 10291 ft 359 kts 143°
2026-05-06 15:43 50.26380 8.03885 10028 ft 347 kts 136°
2026-05-06 15:43 50.24853 8.06717 9777 ft 335 kts 130°
2026-05-06 15:43 50.23468 8.09557 9571 ft 323 kts 129°
2026-05-06 15:43 50.22153 8.12260 9380 ft 310 kts 130°
2026-05-06 15:44 50.20871 8.14882 9233 ft 297 kts 130°
2026-05-06 15:44 50.19634 8.17402 9189 ft 289 kts 130°
2026-05-06 15:44 50.18403 8.19894 9136 ft 291 kts 130°
2026-05-06 15:44 50.17169 8.22386 9112 ft 291 kts 130°
2026-05-06 15:45 50.15930 8.24889 9064 ft 290 kts 130°
2026-05-06 15:45 50.14712 8.27346 9017 ft 290 kts 130°
2026-05-06 15:45 50.13478 8.29833 8968 ft 290 kts 130°
2026-05-06 15:45 50.12237 8.32333 8915 ft 290 kts 130°
2026-05-06 15:46 50.11029 8.34846 8827 ft 291 kts 126°
2026-05-06 15:46 50.10270 8.37763 8748 ft 295 kts 100°
2026-05-06 15:46 50.10433 8.40899 8677 ft 297 kts 74°
2026-05-06 15:46 50.11128 8.43932 8591 ft 297 kts 69°
2026-05-06 15:47 50.11886 8.46937 8524 ft 298 kts 69°
2026-05-06 15:47 50.12631 8.49944 8440 ft 298 kts 70°
2026-05-06 15:47 50.13366 8.52960 8364 ft 297 kts 70°
2026-05-06 15:47 50.14092 8.55974 8291 ft 297 kts 70°
2026-05-06 15:48 50.14813 8.58980 8207 ft 297 kts 70°
2026-05-06 15:48 50.15525 8.61961 8130 ft 296 kts 70°
2026-05-06 15:48 50.16239 8.64957 8048 ft 296 kts 70°
2026-05-06 15:48 50.16957 8.67980 7969 ft 295 kts 70°
2026-05-06 15:49 50.17672 8.70977 7882 ft 296 kts 70°
2026-05-06 15:49 50.18384 8.73978 7817 ft 295 kts 70°
2026-05-06 15:49 50.19094 8.76981 7729 ft 294 kts 70°
2026-05-06 15:49 50.19804 8.79972 7654 ft 293 kts 70°
2026-05-06 15:50 50.20509 8.82966 7579 ft 294 kts 70°
2026-05-06 15:50 50.21200 8.85912 7496 ft 293 kts 71°
2026-05-06 15:50 50.21902 8.88894 7412 ft 293 kts 70°
2026-05-06 15:50 50.22604 8.91873 7333 ft 292 kts 71°
2026-05-06 15:51 50.23300 8.94855 7255 ft 292 kts 71°
2026-05-06 15:51 50.23995 8.97837 7179 ft 292 kts 71°
2026-05-06 15:51 50.24696 9.00819 6860 ft 293 kts 71°
2026-05-06 15:51 50.25389 9.03796 6503 ft 291 kts 71°
2026-05-06 15:52 50.26075 9.06750 6139 ft 289 kts 71°
2026-05-06 15:52 50.26761 9.09690 5742 ft 287 kts 71°
2026-05-06 15:52 50.27430 9.12575 5360 ft 285 kts 71°
2026-05-06 15:52 50.28101 9.15479 4962 ft 284 kts 71°
2026-05-06 15:53 50.28772 9.18372 4623 ft 282 kts 70°
2026-05-06 15:53 50.29429 9.21203 4429 ft 272 kts 71°
2026-05-06 15:53 50.30060 9.23943 4309 ft 262 kts 70°
2026-05-06 15:53 50.30668 9.26582 4229 ft 253 kts 71°
2026-05-06 15:54 50.31254 9.29115 4097 ft 243 kts 70°
2026-05-06 15:54 50.31804 9.31566 4006 ft 233 kts 73°
2026-05-06 15:54 50.32006 9.33982 3981 ft 217 kts 97°
2026-05-06 15:54 50.31555 9.36128 3989 ft 204 kts 126°
2026-05-06 15:55 50.30584 9.37674 3993 ft 198 kts 152°
2026-05-06 15:55 50.29367 9.38552 3998 ft 194 kts 164°
2026-05-06 15:55 50.28088 9.39242 3998 ft 195 kts 165°
2026-05-06 15:55 50.26799 9.39927 4000 ft 196 kts 165°
2026-05-06 15:56 50.25505 9.40559 3991 ft 194 kts 171°
2026-05-06 15:56 50.24182 9.40524 3993 ft 189 kts 199°
2026-05-06 15:56 50.23094 9.39470 3999 ft 185 kts 229°
2026-05-06 15:56 50.22458 9.37743 3997 ft 184 kts 249°
2026-05-06 15:57 50.22027 9.35847 4005 ft 186 kts 250°
2026-05-06 15:57 50.21615 9.33937 4001 ft 185 kts 250°
2026-05-06 15:57 50.21200 9.32064 4001 ft 186 kts 250°
2026-05-06 15:57 50.20776 9.30166 4003 ft 185 kts 250°
2026-05-06 15:58 50.20347 9.28284 4000 ft 184 kts 250°
2026-05-06 15:58 50.19914 9.26406 3995 ft 184 kts 250°
2026-05-06 15:58 50.19479 9.24522 4000 ft 184 kts 250°
2026-05-06 15:58 50.19044 9.22640 4014 ft 191 kts 250°
2026-05-06 15:59 50.18562 9.20556 4014 ft 214 kts 249°
2026-05-06 15:59 50.17746 9.18585 4010 ft 218 kts 233°
2026-05-06 15:59 50.17186 9.16384 4012 ft 220 kts 257°
2026-05-06 15:59 50.16872 9.14071 4001 ft 220 kts 257°
2026-05-06 16:00 50.16575 9.11728 4002 ft 221 kts 257°
2026-05-06 16:00 50.16200 9.09406 4003 ft 220 kts 252°
2026-05-06 16:00 50.15702 9.07146 4001 ft 220 kts 250°
2026-05-06 16:00 50.15161 9.04907 4004 ft 221 kts 247°
2026-05-06 16:01 50.14553 9.02709 4013 ft 221 kts 246°
2026-05-06 16:01 50.13968 9.00488 4013 ft 222 kts 248°
2026-05-06 16:01 50.13432 8.98228 4017 ft 222 kts 250°
2026-05-06 16:01 50.12919 8.95999 4017 ft 221 kts 249°
2026-05-06 16:02 50.12389 8.93744 4021 ft 222 kts 249°
2026-05-06 16:02 50.11853 8.91506 4017 ft 221 kts 249°
2026-05-06 16:02 50.11312 8.89244 4021 ft 222 kts 249°
2026-05-06 16:02 50.10776 8.86995 4022 ft 221 kts 249°
2026-05-06 16:03 50.10240 8.84747 3956 ft 222 kts 249°
2026-05-06 16:03 50.09706 8.82508 3689 ft 219 kts 249°
2026-05-06 16:03 50.09176 8.80291 3375 ft 219 kts 250°
2026-05-06 16:03 50.08660 8.78126 3052 ft 210 kts 250°
2026-05-06 16:04 50.08169 8.76071 2790 ft 195 kts 250°
2026-05-06 16:04 50.07714 8.74171 2535 ft 180 kts 251°
2026-05-06 16:04 50.07288 8.72389 2279 ft 171 kts 252°
2026-05-06 16:04 50.06891 8.70725 2057 ft 157 kts 252°
2026-05-06 16:05 50.06525 8.69191 1852 ft 145 kts 252°
2026-05-06 16:05 50.06185 8.67769 1674 ft 136 kts 253°
2026-05-06 16:05 50.05871 8.66451 1495 ft 128 kts 252°
2026-05-06 16:05 50.05560 8.65152 1322 ft 128 kts 253°
2026-05-06 16:06 50.05252 8.63860 1127 ft 126 kts 252°
2026-05-06 16:06 50.04949 8.62594 956 ft 125 kts 253°
2026-05-06 16:06 50.04648 8.61332 781 ft 124 kts 251°
2026-05-06 16:06 50.04347 8.60078 615 ft 123 kts 253°
2026-05-06 16:07 50.04035 8.58823 467 ft 125 kts 251°
2026-05-06 16:07 50.03714 8.57554 369 ft 126 kts 250°
2026-05-06 16:07 50.03474 8.56461 362 ft 75 kts 251°
2026-05-06 16:07 50.03402 8.56134 356 ft 0 kts 249°
2026-05-06 16:08 50.03401 8.56134 356 ft 0 kts 249°
2026-05-06 16:08 50.03390 8.56089 363 ft 11 kts 249°
2026-05-06 16:08 50.03351 8.55906 358 ft 24 kts 252°
2026-05-06 16:08 50.03310 8.55606 351 ft 31 kts 275°
2026-05-06 16:09 50.03322 8.55447 357 ft 3 kts 278°
2026-05-06 16:09 50.03326 8.55402 351 ft 6 kts 277°
2026-05-06 16:09 50.03338 8.55263 353 ft 19 kts 279°
2026-05-06 16:09 50.03347 8.55184 353 ft 0 kts 280°
2026-05-06 16:10 50.03349 8.55165 352 ft 7 kts 280°
2026-05-06 16:11 50.03367 8.55023 352 ft 18 kts 275°
2026-05-06 16:11 50.03335 8.54792 349 ft 27 kts 253°
2026-05-06 16:11 50.03291 8.54573 352 ft 0 kts 266°
2026-05-06 16:11 50.03296 8.54532 350 ft 7 kts 290°
2026-05-06 16:12 50.03313 8.54498 354 ft 0 kts 313°
2026-05-06 16:12 50.03340 8.54468 354 ft 9 kts 327°
2026-05-06 16:13 50.03417 8.54418 355 ft 15 kts 339°
2026-05-06 16:13 50.03538 8.54348 354 ft 22 kts 341°
2026-05-06 16:13 50.03663 8.54340 356 ft 16 kts 10°
2026-05-06 16:13 50.03727 8.54354 357 ft 0 kts
2026-05-06 16:14 50.03763 8.54348 355 ft 11 kts 353°
2026-05-06 16:14 50.03861 8.54335 360 ft 16 kts 341°
2026-05-06 16:14 50.03994 8.54350 362 ft 23 kts 36°
2026-05-06 16:15 50.04090 8.54574 364 ft 24 kts 62°
2026-05-06 16:15 50.04154 8.54779 363 ft 15 kts 54°
2026-05-06 16:15 50.04270 8.54907 366 ft 22 kts 35°
2026-05-06 16:15 50.04337 8.54980 367 ft 0 kts 35°